User: anonymous   Login
Location: Newark
(34.1333°N, 7.9667°W)
Time: 02:40:56
(UTC+00:00)
Language:

Explorer 7 - Orbit

View from above orbital plane
View from above orbital plane
View from above satellite
View from above satellite

Ground track
Ground track

The orbit data is extracted from the following two-line orbital elements,

1 00022U 59009A   21337.54161304  .00001450  00000-0  12856-3 0  9992
2 00022  50.2830 114.8762 0137801 140.3373 220.7751 14.95920069550294
Epoch (UTC): 03 December 2021 12:59:55
Eccentricity: 0.0137801
inclination: 50.2830°
perigee height: 483 km
apogee height: 675 km
right ascension of ascending node: 114.8762°
argument of perigee: 140.3373°
revolutions per day: 14.95920069
mean anomaly at epoch: 220.7751°
orbit number at epoch: 55029

The dashed part of the orbit path shows where the satellite is in the earth's shadow,  

DLR